Regional Weather Roundup
Issued by NWS

Home | Current Version | Previous Version | Graphics & Text | Print | Product List | Glossary On
Versions: 1 2 3 4 5 6 7 8 9 10 11 12 13 14 15 16 17 18 19 20 21 22 23 24 25 26 27
000
ASUS45 KSLC 210210
RWRUT

UTAH REGIONAL WEATHER ROUNDUP
NATIONAL WEATHER SERVICE SALT LAKE CITY UT
700 PM MST SAT JAN 20 2018

UTZ001>011-023>025-210300-

NORTHERN UTAH

CITY           SKY/WX    TMP DP  RH WIND       PRES   REMARKS
BRIGHAM CITY   CLOUDY    32  20  61 NW14      29.93S WCI  22
HILL AFB       CLOUDY    30  21  71 NW13      29.90R WCI  20
LOGAN          CLOUDY    29  21  72 NW9       29.93R WCI  20
OGDEN          CLOUDY    30  22  72 N7        29.91R WCI  23
SALT LAKE CITY CLOUDY    34  26  72 NW14      29.92S WCI  25
TOOELE VALLEY  CLOUDY    28  28 100 S3        29.95S
WENDOVER       MOCLDY    33  13  43 N29G35    29.98R WCI  19
HEBER CITY     CLOUDY    28  21  74 N10       29.83R WCI  19
WEST JORDAN    CLOUDY    29  28  94 NW13      29.93R WCI  19

$$

UTZ011>015-024>027-210300-

CENTRAL/NORTHEAST UTAH

CITY           SKY/WX    TMP DP  RH WIND       PRES   REMARKS
PROVO AIRPORT  CLOUDY    30  27  88 NW18      29.92R WCI  18
MOAB/CANYONLAN MOCLDY    38  36  92 E7        29.70S WCI  33
DELTA          CLOUDY    28  27  93 NW9       29.94R WCI  20
PRICE          CLOUDY    27  20  75 NW16G26   29.75R WCI  15
RICHFIELD      CLOUDY    27  27 100 CALM      29.90R
ROOSEVELT      MOCLDY    32  23  69 W15       29.75S WCI  22
VERNAL         LGT SNOW  30  28  92 NE7       29.75R VSB 3/4 WCI  23

$$

UTZ013>016-019>022-027-210300-

SOUTHERN UTAH

CITY           SKY/WX    TMP DP  RH WIND       PRES   REMARKS
BRYCE CANYON   MOCLDY    19  16  88 W18G26    29.79R WCI   4
CEDAR CITY     CLOUDY    24  22  91 N9        29.91R WCI  14
MILFORD        LGT SNOW  26  25  96 N9        29.94R FOG     WCI  17
ST GEORGE      CLOUDY    40  32  73 CALM      29.92R
HANKSVILLE     CLOUDY    41  21  45 NW14G20   29.75R
KANAB          MOCLDY    36  27  69 W12G17    29.86R WCI  27
BLANDING         N/A     33  32  98 E5        29.84F WCI  28

$$

REGIONAL REPORTS     COLORADO/ARIZONA

CITY           SKY/WX    TMP DP  RH WIND       PRES   REMARKS
CRAIG, CO      LGT RAIN  34  32  92 SW3       29.68F
GRAND JUNCTION LGT RAIN  37  37 100 N15       29.73S WCI  28
RIFLE, CO      LGT RAIN  37  36  96 W3        29.70S
MONTROSE, CO   MOCLDY    41  33  73 S5        29.72F
CORTEZ, CO     LGT SNOW  33  33 100 S10       29.81R FOG     WCI  25
COLORADO CITY  CLOUDY    32  30  93 NW12      29.87R WCI  23
PAGE, AZ       MOCLDY    41  26  55 W13G22    29.77R
GRAND CANYON   CLOUDY    29  24  82 SW8G18    29.81R WCI  21
KINGMAN, AZ    CLOUDY   N/A N/A N/A NW7       29.95R
FLAGSTAFF, AZ  PTCLDY    26  18  71 SW9G21    29.82S WCI  17

$$

REGIONAL REPORTS    NEVADA/IDAHO/WYOMING

CITY           SKY/WX    TMP DP  RH WIND       PRES   REMARKS
LAS VEGAS, NV  PTCLDY    48  23  37 NW15      29.97R
ELY, NY        LGT SNOW  21  18  88 NW15      29.97R FOG     WCI   8
ELKO, NV       CLOUDY    30  19  63 NW9       30.04R WCI  22
POCATELLO, ID  MOCLDY    32  23  69 NW12      29.99R WCI  23
BURLEY, ID     PTCLDY    29  21  72 SW7       30.01R WCI  22
FORT BRIDGER,  LGT SNOW  23  23 100 W9        29.82F WCI  13
EVANSTON, WY   CLOUDY    20  18  92 N16       29.81S FOG     WCI   6
ROCK SPRINGS,  LGT SNOW  22  18  85 N12       29.78F FOG     WCI  10

$$




USA.gov is the U.S. government's official web portal to all federal, state and local government web resources and services.